User: anonymous   Login
Location: Caltech
(34.1382°N, 118.1253°W)
Time: 12:50:30
(UTC-07:00)
Language:

Cosmos 2251 Rocket - Orbit

View from above orbital plane
View from above orbital plane
View from above satellite
View from above satellite

Ground track
Ground track

The orbit data is extracted from the following two-line orbital elements,

1 22676U 93036B   16207.89316590 -.00000029 +00000-0 -12171-5 0  9991
2 22676 074.0420 058.6087 0018742 168.2797 191.8795 14.33883286208295
Epoch (UTC): 25 July 2016 21:26:09
Eccentricity: 0.0018742
inclination: 74.0420°
perigee height: 765 km
apogee height: 792 km
right ascension of ascending node: 58.6087°
argument of perigee: 168.2797°
revolutions per day: 14.33883286
mean anomaly at epoch: 191.8795°
orbit number at epoch: 20829

The dashed part of the orbit path shows where the satellite is in the earth's shadow,  

DLR